Kingston, Jamaica

12:03 PM EST on June 21, 2018 (GMT -0500)
Norman Manley International

Weather History for MKJP - August, 2017

Change the Weather History Date:

Sunday, August 13, 2017

  Actual Average Record
Temperature  
Mean Temperature 85 °F -  
Max Temperature 91 °F 88 °F 93 °F (1998)
Min Temperature 79 °F 79 °F 71 °F (2013)
Cooling Degree Days 20    
Growing Degree Days 35 (Base 50)    
Moisture  
Dew Point 74 °F    
Average Humidity 67    
Maximum Humidity 75    
Minimum Humidity 55    
Precipitation  
Precipitation 0.00 in - - ()
Sea Level Pressure  
Sea Level Pressure 29.95 in    
Wind  
Wind Speed 11 mph ()    
Max Wind Speed 24 mph    
Max Gust Speed -    
Visibility 7.7 miles    
Events Rain    
Averages and records for this station are not official NWS values.
T = Trace of Precipitation, MM = Missing Value Source: Averaged Metar Reports

Daily Weather History Graph

Daily Weather History Graph

Search for Another Location

Airport or City:

Astronomy

Aug. 13, 2017 Rise Set
Actual Time 5:49 AM EST 6:34 PM EST
Civil Twilight 5:26 AM EST 6:57 PM EST
Nautical Twilight 4:59 AM EST 7:23 PM EST
Astronomical Twilight 4:32 AM EST 7:50 PM EST
Moon 11:00 PM EST (8/13) 10:57 AM EST (8/13)
Length of Visible Light 13h 30m
Length of Day
12h 45m
Waning Gibbous, 65% of the Moon is Illuminated
Aug 13
Waning Gibbous
Aug 14
Last Quarter
Aug 21
New
Aug 29
First Quarter
Sep 6
Full

Hourly Weather History & Observations

Time (EST) Temp. Heat Index Dew Point Humidity Pressure Visibility Wind Dir Wind Speed Gust Speed Precip Events Conditions
12:00 AM 84.2 °F 92.3 °F 75.2 °F 74% 29.95 in 6.2 mi ESE 11.5 mph - N/A   Partly Cloudy
1:00 AM 84.2 °F 92.3 °F 75.2 °F 74% 29.95 in 6.2 mi SE 11.5 mph - N/A   Partly Cloudy
2:00 AM 82.4 °F 88.2 °F 73.4 °F 74% 29.92 in 6.2 mi North 9.2 mph - N/A   Partly Cloudy
3:00 AM 82.4 °F 87.2 °F 71.6 °F 70% 29.92 in 6.2 mi North 8.1 mph - N/A   Partly Cloudy
4:00 AM 83 °F - 72 °F 63% 29.93 in 16 mi North 6.9 mph - -   Haze
4:00 AM 82.4 °F 88.2 °F 73.4 °F 74% 29.92 in 6.2 mi North 6.9 mph - N/A   Partly Cloudy
5:00 AM 82.4 °F 87.2 °F 71.6 °F 70% 29.92 in 6.2 mi North 6.9 mph - N/A   Partly Cloudy
6:00 AM 82.4 °F 87.2 °F 71.6 °F 70% 29.92 in 6.2 mi North 6.9 mph - N/A   Partly Cloudy
7:00 AM 83 °F - 72 °F 61% 29.97 in 16 mi North 4.6 mph - -   Haze
7:00 AM 82.4 °F 87.2 °F 71.6 °F 70% 29.95 in 6.2 mi North 4.6 mph - N/A   Partly Cloudy
8:00 AM 87.8 °F 97.6 °F 75.2 °F 66% 29.98 in 6.2 mi SE 10.4 mph - N/A   Partly Cloudy
9:00 AM 87.8 °F 97.6 °F 75.2 °F 66% 29.98 in 6.2 mi SE 10.4 mph - N/A   Partly Cloudy
9:24 AM 86.0 °F 95.1 °F 75.2 °F 70% 29.98 in 6.2 mi SE 24.2 mph - N/A Rain Light Rain Showers
10:00 AM 87 °F - 74 °F 57% 30.01 in 14 mi SE 15.0 mph - - Rain Light Rain Showers
10:00 AM 87.8 °F 95.6 °F 73.4 °F 62% 30.01 in 6.2 mi SE 15.0 mph - N/A   Partly Cloudy
11:00 AM 89.6 °F 99.8 °F 75.2 °F 62% 29.98 in 6.2 mi ESE 19.6 mph - N/A   Partly Cloudy
12:00 PM 89.6 °F 102.2 °F 77.0 °F 66% 29.98 in 6.2 mi SE 19.6 mph - N/A   Partly Cloudy
1:00 PM 90 °F - 78 °F 61% 29.97 in 14 mi SE 23.0 mph - -   Haze
1:00 PM 89.6 °F 104.7 °F 78.8 °F 70% 29.95 in 6.2 mi SE 23.0 mph - N/A   Partly Cloudy
2:00 PM 89.6 °F 102.2 °F 77.0 °F 66% 29.92 in 6.2 mi SE 24.2 mph - N/A   Partly Cloudy
3:00 PM 87.8 °F 102.5 °F 78.8 °F 75% 29.92 in 6.2 mi SSE 24.2 mph - N/A   Partly Cloudy
4:00 PM 87 °F - 77 °F 64% 29.95 in 11 mi SE 23.0 mph - -   Haze
4:00 PM 87.8 °F 99.7 °F 77.0 °F 70% 29.95 in 6.2 mi SE 23.0 mph - N/A   Partly Cloudy
5:00 PM 87.8 °F 97.6 °F 75.2 °F 66% 29.92 in 6.2 mi SE 17.3 mph - N/A   Partly Cloudy
6:00 PM 87.8 °F 95.6 °F 73.4 °F 62% 29.92 in 6.2 mi SE 16.1 mph - N/A   Partly Cloudy
7:00 PM 87 °F - 73 °F 55% 29.95 in 11 mi SE 13.8 mph - -   Haze
7:00 PM 87.8 °F 95.6 °F 73.4 °F 62% 29.95 in 6.2 mi SE 13.8 mph - N/A   Partly Cloudy
8:00 PM 86.0 °F 93.4 °F 73.4 °F 66% 29.95 in 6.2 mi East 8.1 mph - N/A   Partly Cloudy
9:00 PM 86.0 °F 93.4 °F 73.4 °F 66% 29.95 in 6.2 mi SE 10.4 mph - N/A   Partly Cloudy
10:00 PM 84 °F - 73 °F 62% 29.98 in 11 mi East 6.9 mph - -   Haze
10:00 PM 84.2 °F 90.9 °F 73.4 °F 70% 29.98 in 6.2 mi East 6.9 mph - N/A   Partly Cloudy
11:00 PM 84.2 °F 90.9 °F 73.4 °F 70% 29.98 in 6.2 mi NNE 3.5 mph - N/A   Partly Cloudy